Lapse_Rate
7.3 6.9 7.6 8.4 8.5 8.4 8.3 8.3 7.8 7.9 7.9 7.9 7.8 7.9 7.8 7.9 7.9 8.0 8.1 7.8 7.8 7.8 7.9 8.0 7.9 7.9 7.9 8.0 7.9 7.9 7.9 7.8 7.8 7.7 7.8 7.9 8.0 7.9 7.9 7.5 7.0 7.1 7.3 7.0 6.7 7.5 7.7 7.0 7.4 7.3 6.9 6.9 6.7 6.9
7.5 7.3 8.2 8.4 8.4 8.3 8.2 8.1 8.2 8.0 8.0 8.0 7.9 7.9 7.9 7.9 7.7 7.8 7.9 8.0 7.5 7.6 7.8 7.8 7.8 7.9 8.0 7.9 8.0 7.9 8.0 8.0 7.8 7.7 7.9 7.7 8.0 7.9 7.9 8.1 7.6 7.7 7.1 6.7 6.3 6.2 6.3 6.5 6.4 6.4 6.6 6.8 6.7 6.8
8.0 8.0 7.9 8.3 8.3 8.3 8.2 8.1 8.1 8.1 8.1 8.0 7.9 7.9 7.7 7.8 7.9 7.8 7.7 7.6 7.7 7.6 7.8 7.7 7.9 8.0 8.0 8.0 7.9 7.9 7.9 7.9 7.9 7.8 7.8 7.7 7.8 7.8 8.1 8.1 7.6 7.8 7.4 7.0 7.1 6.8 6.5 6.3 6.5 6.5 6.7 6.8 6.8 6.9
8.2 8.1 7.9 8.0 7.8 7.9 7.9 7.9 8.1 8.1 8.1 8.0 8.0 7.8 7.9 7.9 7.7 7.7 7.7 7.7 7.6 7.8 7.8 8.1 8.1 8.0 8.0 7.9 7.9 7.9 7.9 7.9 7.8 7.9 7.6 7.6 7.9 7.7 7.9 7.7 7.6 7.6 7.2 7.3 7.0 7.0 7.0 7.0 6.6 6.6 6.1 6.8 6.8 6.7
8.1 8.0 8.0 7.9 7.8 7.8 7.8 7.7 7.7 7.8 8.0 8.0 8.0 8.0 7.9 7.8 7.7 7.7 7.8 7.7 7.8 7.9 7.9 8.0 8.1 8.0 7.9 7.9 8.0 8.0 7.9 7.9 7.6 7.6 7.6 7.8 7.8 7.9 7.8 7.4 7.9 8.2 8.3 7.9 7.4 6.9 6.7 7.1 7.2 6.9 6.3 6.6 6.8 6.9
7.9 7.8 7.9 7.9 7.9 7.9 7.8 7.6 7.6 7.6 7.7 7.7 7.8 7.8 7.9 7.8 7.7 7.7 7.6 7.9 7.9 7.9 7.8 7.9 8.1 8.1 8.2 8.1 8.1 8.0 8.0 8.0 7.6 7.6 7.6 7.7 7.5 7.6 7.7 7.9 8.2 8.3 8.7 8.2 7.3 7.1 6.6 7.2 7.4 7.4 7.0 7.1 7.0 7.3
7.7 7.9 7.8 7.7 7.7 7.7 7.4 7.3 7.4 7.5 7.7 7.8 7.7 7.6 7.7 7.8 7.8 7.9 8.0 8.1 8.1 8.0 8.1 8.2 8.2 8.3 8.3 8.2 8.0 8.0 8.0 8.0 8.0 7.7 7.7 7.7 7.9 7.6 7.6 7.7 8.5 8.6 8.3 7.5 7.4 6.9 7.1 7.2 7.4 7.4 7.6 7.5 7.4 7.4
7.6 7.7 7.8 7.7 7.6 7.6 7.5 7.4 7.4 7.5 7.7 7.8 7.8 7.7 7.8 7.8 7.9 8.1 8.2 8.3 8.2 8.1 8.2 8.3 8.2 8.2 8.1 8.1 8.1 8.1 8.0 8.0 7.9 7.7 7.6 7.8 7.9 7.5 7.3 8.0 8.0 7.9 7.7 7.1 7.2 7.1 6.9 7.4 7.5 7.6 7.7 7.7 7.6 7.4
7.6 7.7 7.8 7.7 7.5 7.4 7.5 7.5 7.4 7.6 7.6 7.6 7.6 7.6 7.7 7.8 7.9 8.0 8.2 8.3 8.2 8.0 8.1 8.1 7.9 8.0 8.0 8.0 8.1 8.2 8.3 8.1 8.3 7.6 7.5 7.3 7.5 7.5 7.2 6.8 6.8 6.9 6.9 6.7 7.1 7.2 7.6 7.6 7.5 7.8 7.8 7.5 7.5 7.3
7.3 7.5 7.6 7.6 7.7 7.7 7.5 7.4 7.4 7.3 7.3 7.4 7.5 7.6 7.7 7.8 7.9 8.0 7.9 7.9 8.0 8.0 8.0 7.9 7.9 7.9 8.0 8.1 8.0 7.9 7.5 7.4 7.3 7.5 7.2 7.3 7.1 7.3 7.1 6.9 6.8 7.2 7.0 6.9 7.2 7.9 7.5 8.2 7.9 7.8 7.8 7.7 7.5 7.3
7.1 7.1 7.1 7.3 7.3 7.4 7.4 7.4 7.4 7.5 7.6 7.7 7.7 7.7 7.8 7.8 7.8 7.9 7.9 7.9 7.9 8.0 7.9 7.9 7.8 7.6 8.0 8.0 7.7 7.4 7.2 6.9 6.9 7.2 7.0 7.0 6.8 7.0 7.1 7.5 7.4 7.5 7.7 7.4 7.8 8.0 7.7 7.9 8.1 7.6 7.6 7.6 7.5 7.4
7.2 7.2 7.1 7.1 7.1 7.1 7.1 7.1 7.2 7.3 7.4 7.4 7.5 7.6 7.7 7.8 8.2 8.2 8.1 8.0 7.9 7.6 7.8 7.8 7.8 7.9 7.8 7.6 7.3 7.1 6.9 6.9 7.0 6.9 6.8 6.9 7.0 7.5 7.5 7.6 7.6 7.7 7.5 7.5 7.8 7.9 8.0 8.1 8.0 7.7 7.7 7.7 7.6 7.5
7.3 7.3 7.4 7.4 7.3 7.2 7.2 7.1 7.1 7.2 7.4 7.5 7.5 7.5 7.6 7.8 7.9 8.2 8.2 8.1 8.0 8.0 7.9 7.7 7.6 7.6 7.4 7.1 7.1 7.0 6.9 7.0 7.0 7.0 7.3 7.2 7.3 7.6 7.8 7.5 7.5 7.6 7.5 7.4 7.4 7.6 7.7 7.7 7.7 7.8 8.2 8.2 7.8 7.6
7.4 7.5 7.6 7.6 7.6 7.6 7.5 7.3 7.3 7.3 7.3 7.3 7.3 7.3 7.4 7.7 7.8 8.0 8.0 7.9 7.7 7.7 7.7 7.7 7.6 7.4 7.3 7.1 7.1 7.1 7.1 7.1 7.1 7.3 7.4 7.3 7.4 7.7 7.6 7.7 7.7 7.5 7.6 7.6 7.6 7.6 7.4 7.4 7.6 7.9 8.1 8.1 7.9 7.5
7.1 7.1 7.3 7.5 7.5 7.5 7.5 7.4 7.3 7.2 7.2 7.3 7.4 7.5 7.7 7.6 7.6 7.6 7.5 7.5 7.5 7.6 7.6 7.5 7.4 7.3 7.2 7.1 7.1 7.1 7.2 7.4 7.5 7.5 7.3 7.4 7.5 7.5 7.5 7.6 7.6 7.6 7.5 7.4 7.3 7.3 7.5 7.6 7.7 7.6 7.8 7.8 7.7 7.1
6.9 6.9 7.0 7.1 7.3 7.5 7.6 7.4 7.3 7.2 7.2 7.1 7.5 7.7 7.7 7.6 7.5 7.4 7.2 7.1 7.2 7.2 7.3 7.4 7.3 7.4 7.3 7.2 7.2 7.2 7.4 7.7 7.6 7.5 7.5 7.4 7.5 7.5 7.5 7.4 7.4 7.4 7.5 7.5 7.5 7.2 7.1 7.2 7.4 7.5 7.2 7.1 7.1 7.0
6.7 6.7 6.8 7.0 7.1 7.4 7.6 7.6 7.5 7.4 7.1 7.1 7.5 7.6 7.3 7.3 7.3 7.2 7.2 7.2 7.1 7.1 7.2 7.3 7.4 7.4 7.4 7.5 7.5 7.4 7.5 7.4 7.4 7.4 7.4 7.5 7.5 7.5 7.5 7.4 7.3 7.2 7.1 7.2 7.2 7.4 7.3 7.0 7.0 7.0 7.0 6.9 6.9 6.6
6.6 6.7 6.7 6.7 6.7 6.9 7.2 7.4 7.3 7.2 7.4 7.4 7.3 7.2 7.1 7.1 7.1 7.0 7.1 7.1 7.1 7.1 7.1 7.1 7.2 7.2 7.3 7.3 7.7 7.5 7.3 7.1 7.2 7.4 7.4 7.4 7.4 7.5 7.5 7.4 7.4 7.5 7.3 7.2 7.1 7.1 7.1 7.1 7.0 6.9 6.8 6.8 6.9 7.0
6.6 6.4 6.4 6.4 6.4 6.4 6.7 7.2 7.2 7.2 7.4 7.4 7.4 7.3 7.3 7.2 7.0 7.0 6.9 6.9 7.0 7.1 7.1 7.1 7.0 7.1 7.1 7.3 7.3 7.3 7.3 7.3 7.2 7.2 7.2 7.2 7.2 7.3 7.3 7.3 7.2 7.2 7.2 7.3 7.3 7.2 7.1 6.9 6.8 6.8 6.9 6.8 6.7 6.8
6.6 6.6 6.6 6.6 6.4 6.2 6.4 6.8 7.1 7.0 7.3 7.3 7.3 7.4 7.5 7.5 7.4 7.4 7.3 7.2 7.1 7.0 7.1 7.0 7.3 7.1 7.2 7.2 7.1 7.0 7.0 7.0 7.0 7.0 6.9 7.0 7.1 7.1 7.0 7.1 7.2 7.2 7.2 7.2 7.3 7.4 7.3 7.2 7.1 7.2 7.1 7.2 7.2 7.1
6.8 6.7 6.8 6.9 6.7 6.3 6.3 6.5 6.9 7.1 7.2 7.3 7.3 7.4 7.6 7.6 7.7 7.5 7.5 7.5 7.6 7.5 7.3 7.2 7.4 7.4 7.2 7.3 7.2 7.1 7.1 7.1 7.2 7.2 7.2 7.1 7.0 7.1 7.1 7.1 7.0 7.1 7.1 7.0 7.0 7.1 7.2 7.2 7.2 7.3 7.2 7.1 7.1 7.0
6.9 6.8 6.8 6.9 6.6 6.5 6.5 6.6 6.8 7.0 7.1 7.2 7.4 7.4 7.5 7.7 7.9 7.8 7.5 7.7 7.7 7.6 7.6 7.7 7.7 7.6 7.5 7.6 7.5 7.3 7.3 7.3 7.3 7.3 7.3 7.3 7.4 7.4 7.3 7.2 7.2 7.1 7.1 7.1 7.0 7.0 7.1 7.1 7.2 7.2 7.2 7.1 7.1 7.1
6.7 6.8 6.9 7.0 6.6 6.4 6.5 6.6 6.8 7.1 7.3 7.2 7.2 7.1 7.2 7.3 7.4 7.5 7.5 7.6 7.6 7.4 7.3 7.3 7.4 7.5 7.5 7.5 7.3 7.3 7.4 7.5 7.5 7.5 7.4 7.4 7.4 7.4 7.3 7.4 7.4 7.3 7.2 7.1 6.9 6.9 6.9 7.0 7.1 7.2 7.3 7.2 7.1 7.1
6.6 6.7 6.6 6.5 6.6 6.5 6.3 6.4 6.4 6.6 6.7 6.7 6.4 6.4 6.5 6.7 6.8 6.9 7.1 7.2 7.6 7.6 7.4 7.2 7.1 7.3 7.3 7.3 7.4 7.3 7.3 7.4 7.4 7.3 7.3 7.3 7.3 7.1 7.1 7.1 7.1 7.1 7.0 6.9 6.7 6.6 6.8 6.9 6.9 7.1 7.2 7.2 7.2 7.2
6.2 6.5 6.4 6.2 6.1 5.9 5.8 5.9 6.0 6.0 6.2 6.2 6.1 6.3 6.0 6.1 6.2 6.7 6.8 6.6 6.9 7.1 7.1 7.2 7.3 7.2 7.2 7.2 7.2 7.2 7.3 7.1 7.1 7.1 7.0 7.0 6.9 6.8 6.8 6.8 6.7 6.6 6.4 6.2 6.2 6.2 6.4 6.6 6.7 6.9 7.0 7.0 7.1 7.2
6.1 6.2 6.2 5.9 5.7 5.5 5.5 5.4 5.4 5.6 5.8 5.9 5.8 5.8 5.7 5.7 5.9 6.2 6.5 6.5 6.6 6.7 6.9 7.0 6.9 7.1 7.2 7.1 7.2 7.1 7.1 7.0 7.0 7.0 6.9 6.9 6.8 6.7 6.6 6.5 6.4 6.2 6.1 6.0 5.9 5.9 6.0 6.1 6.3 6.5 6.7 6.8 6.9 6.9
6.0 6.2 6.2 5.9 5.8 5.6 5.3 5.5 5.7 5.6 5.5 5.6 5.7 5.6 5.5 5.6 5.7 5.9 6.2 6.5 6.8 7.0 7.1 7.0 6.9 6.9 7.0 7.1 7.1 7.1 7.0 7.0 7.1 7.0 7.0 7.2 7.1 6.9 6.8 6.7 6.5 6.3 6.2 6.1 6.1 6.0 5.9 5.9 6.1 6.2 6.4 6.5 6.7 6.8
6.0 6.1 5.9 5.7 5.7 5.6 5.6 5.5 5.4 5.4 5.5 5.4 5.3 5.3 5.4 5.5 5.6 6.1 6.3 6.5 6.6 6.7 7.0 7.2 7.3 7.4 7.5 7.5 7.4 7.4 7.5 7.3 7.3 7.3 7.3 7.3 7.4 7.3 7.2 7.1 7.0 6.7 6.6 6.4 6.3 6.2 6.1 6.0 6.0 6.1 6.2 6.4 6.5 6.7
6.0 6.0 5.9 5.7 5.6 5.7 5.6 5.5 5.3 5.3 5.3 5.2 5.2 5.2 5.3 5.5 5.5 5.8 6.2 6.5 6.7 6.9 7.1 7.4 7.6 7.7 7.8 7.8 7.8 7.7 7.6 7.5 7.4 7.5 7.5 7.5 7.6 7.5 7.4 7.4 7.4 7.2 7.0 6.7 6.6 6.6 6.4 6.3 6.3 6.3 6.3 6.4 6.5 6.6
5.9 5.9 5.8 5.6 5.5 5.5 5.7 5.6 5.4 5.3 5.3 5.2 5.2 5.3 5.4 5.5 5.6 5.7 6.1 6.2 6.5 6.8 7.1 7.4 7.9 7.9 7.9 7.8 7.8 7.7 7.7 7.7 7.5 7.5 7.6 7.7 7.7 7.5 7.4 7.3 7.2 7.2 7.2 7.1 7.0 6.9 6.7 6.6 6.5 6.4 6.3 6.3 6.3 6.4
5.8 5.8 5.7 5.5 5.4 5.4 5.5 5.6 5.5 5.5 5.5 5.4 5.3 5.3 5.2 5.4 5.5 5.6 6.1 6.3 6.5 6.6 6.8 7.2 7.6 7.9 7.9 7.8 7.7 7.6 7.7 7.6 7.5 7.5 7.6 7.7 7.8 7.7 7.7 7.5 7.3 7.2 7.1 7.0 6.9 6.9 6.9 6.8 6.7 6.5 6.2 6.2 6.1 6.2
5.8 5.7 5.5 5.5 5.4 5.3 5.3 5.6 5.6 5.7 5.7 5.6 5.5 5.3 5.3 5.4 5.5 5.7 6.0 6.4 6.5 6.6 6.8 7.0 7.2 7.3 7.5 7.5 7.5 7.4 7.3 7.4 7.4 7.4 7.5 7.6 7.6 7.6 7.6 7.6 7.5 7.4 7.3 7.2 7.0 6.8 6.7 6.7 6.6 6.5 6.5 6.4 6.2 6.1
5.7 5.6 5.4 5.4 5.3 5.2 5.2 5.2 5.3 5.5 5.7 5.5 5.4 5.4 5.4 5.5 5.7 5.9 6.0 6.4 6.6 6.8 6.9 6.9 7.0 7.0 7.1 7.4 7.5 7.6 7.6 7.5 7.6 7.6 7.7 7.7 7.7 7.8 7.8 7.8 7.7 7.7 7.5 7.4 7.2 7.0 6.8 6.6 6.5 6.4 6.3 6.2 6.2 6.2
Wind_Speed
24 18 15 17 17 14 15 13 9 3 2 7 11 13 13 18 23 11 3 10 6 4 4 7 6 6 5 4 3 4 3 3 3 3 3 1 3 4 4 3 4 4 7 4 8 5 3 19 10 5 6 6 5 6
23 16 14 14 15 13 14 10 6 5 5 1 11 13 14 17 19 10 2 3 4 2 1 6 8 7 3 2 3 3 3 1 1 3 2 2 3 2 3 4 2 2 2 3 3 4 4 4 7 9 11 5 7 5
21 16 12 12 13 15 13 8 2 9 9 9 9 7 8 14 20 7 3 4 2 3 4 4 5 6 8 9 6 3 3 1 2 2 3 3 4 3 4 4 5 4 4 3 7 2 7 2 6 8 11 13 6 5
20 16 12 14 14 12 13 14 13 12 11 8 5 6 10 12 21 10 4 4 2 1 2 3 2 3 2 8 12 10 2 2 0 2 3 4 4 3 5 7 10 8 7 5 7 5 8 4 4 8 9 9 7 3
18 16 16 16 17 15 14 11 9 5 6 10 11 9 12 19 18 8 4 5 2 2 0 2 2 2 3 6 9 11 10 9 5 3 4 5 4 4 6 5 8 5 6 3 5 8 6 11 9 9 8 6 8 6
15 15 15 16 15 14 12 11 13 16 15 13 17 18 19 19 18 4 2 4 2 2 2 3 2 2 2 4 7 8 7 7 5 4 4 4 4 5 5 8 11 9 11 10 11 10 8 12 12 10 8 7 3 4
15 13 12 14 15 14 13 18 20 20 18 20 19 18 14 9 2 2 2 2 4 1 2 2 3 3 1 2 3 4 5 4 5 4 5 9 8 6 9 15 18 17 13 13 15 12 13 12 10 8 10 10 9 7
19 16 16 15 16 18 19 18 17 19 19 21 19 12 6 4 5 4 5 5 3 2 1 1 2 3 1 3 3 2 3 4 5 5 3 6 6 5 7 14 17 16 14 12 14 13 12 13 13 12 12 10 10 8
23 21 19 20 20 20 19 18 17 15 12 9 5 1 1 4 2 2 6 7 3 1 1 1 2 2 1 1 1 3 2 4 0 4 5 4 7 7 12 19 20 20 16 14 14 13 12 11 11 9 10 8 9 7
20 20 19 17 15 13 12 12 12 11 6 4 2 2 2 2 4 7 0 0 1 1 1 2 0 1 3 0 0 2 0 2 3 1 2 3 5 13 15 16 19 21 20 16 13 16 13 9 8 8 8 5 7 6
16 15 13 12 12 13 13 12 11 10 0 2 3 2 0 3 2 1 0 1 0 2 2 0 1 2 1 2 1 1 2 2 2 1 3 2 3 10 14 16 13 10 6 8 11 13 7 5 5 4 4 4 5 7
17 15 13 14 13 13 13 14 11 3 3 3 2 1 1 2 1 2 0 1 3 1 2 2 1 2 0 1 2 3 2 2 3 3 2 2 6 14 16 17 17 12 6 5 3 4 3 2 3 3 2 1 8 10
13 13 12 12 13 14 13 13 8 6 2 2 1 1 2 0 2 2 1 1 1 2 2 1 2 1 2 3 3 3 4 3 2 3 2 3 9 12 13 13 13 15 11 7 6 5 6 7 8 7 6 8 10 11
12 13 15 11 14 15 15 13 11 4 3 2 2 3 2 1 3 2 1 1 2 2 3 4 3 3 2 3 1 3 1 3 2 3 1 4 9 11 13 11 12 12 9 8 8 7 7 8 9 8 6 6 8 10
14 15 15 4 14 17 16 15 7 2 2 2 2 3 4 2 3 3 2 3 3 3 4 3 3 3 3 3 3 3 3 4 3 1 2 4 9 11 12 11 12 12 10 7 7 5 6 6 7 7 5 6 8 6
15 14 1 11 18 18 17 10 2 1 2 2 4 3 3 3 3 3 4 4 2 1 1 3 3 3 3 2 4 4 3 1 2 2 3 5 8 9 10 9 9 9 9 9 7 4 3 2 4 6 6 5 5 4
12 3 4 15 20 18 8 2 1 3 3 3 3 3 4 5 5 4 3 2 3 2 2 2 3 2 1 3 3 2 1 3 3 3 3 5 7 9 9 7 7 7 9 9 8 5 4 2 3 5 5 4 4 4
3 5 13 17 15 7 1 2 2 2 4 4 4 2 2 4 5 4 3 4 4 3 3 3 3 3 3 3 1 2 1 1 1 1 2 4 6 7 6 8 8 9 9 8 7 4 1 1 2 2 2 4 5 5
8 10 14 12 7 3 2 2 2 3 3 3 3 3 3 3 5 7 4 4 5 3 2 3 3 3 4 2 3 2 1 1 1 2 3 2 5 6 7 8 8 8 8 8 7 4 4 4 5 3 3 4 3 3
10 8 9 9 2 2 3 1 1 3 3 2 3 4 4 4 3 2 3 4 5 3 6 4 5 3 3 2 1 1 2 2 2 3 3 3 4 7 7 7 7 8 7 7 6 6 5 4 5 5 5 4 3 4
3 3 9 1 1 1 2 2 3 2 4 3 4 4 4 4 4 3 4 4 5 4 5 5 3 3 4 4 4 4 3 0 1 2 4 5 5 5 5 5 7 6 6 6 6 7 7 4 4 4 4 4 3 2
2 7 2 4 1 1 2 1 4 5 3 4 4 3 4 4 3 1 4 1 3 4 4 4 2 6 5 5 5 4 3 1 1 1 2 3 5 5 5 5 6 5 5 6 6 6 6 6 5 3 4 3 2 3
3 2 1 3 1 1 0 4 3 2 3 4 4 4 3 4 3 2 0 2 2 3 4 3 4 6 5 4 5 5 5 3 2 2 3 4 3 4 4 4 4 5 5 6 6 6 6 8 7 5 3 2 2 3
3 2 2 2 3 2 4 2 3 3 3 4 4 7 7 5 6 6 1 2 4 6 6 7 2 2 2 3 3 4 4 3 2 2 3 3 3 3 3 4 4 5 5 5 6 6 6 6 8 7 6 4 2 1
3 2 1 2 2 2 3 4 4 3 3 4 5 4 4 5 4 6 3 3 6 6 7 7 6 3 3 2 2 3 5 4 3 3 4 3 3 3 3 3 4 5 6 6 6 7 7 7 6 7 6 6 7 3
4 1 1 3 1 0 1 2 1 2 3 3 2 4 3 3 3 3 2 4 4 4 6 7 7 5 3 4 3 4 5 4 3 3 4 4 5 4 4 4 4 4 7 6 7 7 8 7 7 9 7 7 6 6
4 5 3 1 1 1 1 2 2 3 3 2 3 3 3 3 0 2 2 3 4 5 5 5 5 4 4 4 4 4 4 4 3 2 2 4 5 5 4 5 6 6 7 8 7 7 7 8 8 8 7 6 5 5
2 5 5 5 2 2 2 1 2 3 3 2 2 2 2 2 1 1 1 3 4 4 3 3 3 3 3 4 4 5 4 6 2 3 1 2 2 4 6 5 5 9 7 7 7 7 7 7 8 8 8 7 7 5
3 4 4 3 2 3 4 5 3 3 3 3 2 3 3 2 1 2 1 2 3 3 3 3 3 2 2 3 4 5 5 6 5 5 4 3 3 4 7 6 6 7 7 8 11 9 9 8 8 8 8 6 5 5
4 4 3 3 4 5 4 5 3 1 3 3 4 7 8 6 3 3 3 3 3 2 1 1 2 3 3 3 3 4 4 5 5 4 4 4 5 7 7 7 7 7 7 8 9 10 10 7 7 4 5 5 4 5
4 3 3 3 3 2 2 1 2 2 3 4 5 7 8 3 2 4 4 4 3 3 4 3 2 1 1 2 3 3 2 3 5 5 4 4 5 6 6 7 7 7 7 8 8 8 8 7 6 6 6 6 6 6
3 4 4 5 3 2 1 1 2 2 2 3 3 4 3 4 3 4 5 6 6 5 5 3 3 3 2 2 1 1 2 4 4 5 7 5 5 7 7 7 6 6 7 8 8 8 9 8 6 5 5 6 7 7
2 1 0 1 2 2 2 2 1 3 3 3 3 4 5 4 5 2 4 5 5 5 5 4 3 4 5 3 2 2 3 3 5 5 6 7 6 6 6 5 6 7 8 8 8 8 9 9 7 6 5 5 5 6
Wind_Direction
341 344 343 346 345 351 0 11 28 160 166 171 198 208 201 188 188 195 116 184 183 217 188 213 214 180 169 210 206 133 204 200 208 247 270 306 290 10 285 330 346 313 315 358 333 263 219 355 334 285 356 7 17 93
350 350 349 1 7 3 1 0 33 83 134 165 153 171 183 185 181 131 119 107 88 163 258 223 241 262 263 334 234 196 330 208 261 266 236 272 257 232 293 312 309 359 334 315 272 330 262 328 342 321 334 337 23 61
353 355 3 7 6 358 6 14 49 53 94 109 125 152 178 167 166 125 120 120 111 197 188 212 222 220 232 230 236 253 204 168 189 358 336 315 275 312 291 309 297 315 311 258 322 237 261 189 270 321 342 344 7 357
3 16 20 17 21 40 46 58 74 80 82 88 114 149 154 154 159 127 137 166 226 149 221 144 143 213 211 216 216 229 286 127 38 258 251 264 269 215 284 300 286 282 291 294 285 311 325 202 267 338 343 2 339 195
20 36 47 50 47 46 57 56 46 63 71 89 83 113 112 135 123 100 138 185 282 299 145 151 203 141 238 203 206 216 220 241 249 233 235 252 273 270 255 276 263 233 244 248 294 314 299 305 322 319 316 342 9 31
40 46 45 41 38 42 60 48 44 73 74 114 94 110 117 128 135 149 92 212 208 352 315 192 91 145 106 186 198 204 215 228 237 232 253 251 270 268 273 275 282 265 252 269 277 294 279 291 294 304 307 337 322 337
40 44 37 35 48 48 47 83 86 78 71 98 102 91 80 100 120 40 30 82 143 172 258 223 169 118 52 169 173 195 195 221 243 250 245 264 265 199 268 266 271 280 268 269 277 276 267 261 267 269 298 301 311 299
38 47 50 55 48 66 80 90 86 84 82 88 95 105 89 51 87 57 54 60 39 128 328 268 154 177 1 183 194 204 221 219 225 249 246 257 262 239 265 272 287 292 290 281 268 266 268 274 278 276 279 278 280 275
47 48 51 63 62 62 65 65 68 78 88 88 79 252 265 29 37 39 66 65 55 354 232 244 255 121 358 130 297 183 250 245 68 258 266 280 253 236 276 306 304 300 288 282 282 275 263 260 269 274 261 242 248 254
52 52 55 54 48 44 36 21 5 345 326 305 317 32 58 38 332 296 221 23 321 324 264 274 103 199 296 346 118 289 308 299 284 277 326 250 264 268 298 297 285 282 275 271 256 252 241 244 240 252 254 239 241 216
39 38 43 40 30 25 14 3 351 345 89 36 27 46 342 286 269 360 309 281 248 217 195 58 281 308 93 274 315 2 300 271 263 226 278 279 280 322 321 323 325 319 252 242 237 243 245 236 254 249 301 253 224 176
13 15 21 17 8 4 0 360 356 18 33 39 50 165 246 323 247 247 230 243 239 53 157 273 58 300 142 230 259 171 252 239 260 339 268 258 332 330 344 351 3 22 52 100 125 183 194 278 336 359 14 265 154 123
348 352 350 355 2 0 354 354 5 94 188 206 204 135 283 212 230 240 169 183 232 176 193 222 248 259 182 220 239 219 230 242 310 236 272 5 347 347 349 351 4 18 38 56 64 71 89 81 69 75 91 111 123 110
333 333 332 323 346 347 349 347 348 267 282 302 320 302 281 226 243 235 289 9 53 247 230 278 265 232 167 225 254 255 179 251 241 236 149 2 349 342 355 357 8 8 11 20 39 49 64 85 85 72 68 81 99 105
325 321 322 321 339 336 334 336 331 275 271 272 246 248 225 245 243 254 274 265 244 264 281 274 240 238 175 229 223 245 219 234 234 71 56 3 342 345 351 359 359 356 358 6 15 46 70 83 92 93 83 81 90 96
328 316 253 339 334 327 324 317 260 238 248 242 228 243 216 251 248 222 220 246 193 221 269 241 260 234 209 231 218 215 248 304 86 49 21 353 350 355 356 349 351 348 356 5 17 29 50 66 105 109 106 102 99 117
313 240 338 332 325 317 316 263 243 229 246 231 246 258 263 286 272 255 244 234 163 220 265 289 245 241 266 229 223 236 84 64 36 38 11 18 2 357 353 345 340 344 346 352 352 4 1 27 127 141 132 136 136 140
269 314 317 320 324 314 243 231 250 252 252 249 255 251 222 249 266 253 233 200 202 182 199 240 286 246 248 259 150 106 113 93 123 44 24 13 8 3 356 353 345 342 338 338 327 310 235 289 230 186 157 161 168 176
294 306 312 310 321 310 285 209 245 270 264 284 270 252 253 258 255 257 268 244 239 230 222 211 234 231 237 207 185 169 174 220 319 339 330 342 0 351 344 349 342 347 341 331 324 320 294 242 255 219 219 201 209 175
297 297 290 306 290 277 264 241 252 266 274 324 273 268 262 257 265 244 243 213 205 209 221 224 231 237 267 128 172 129 142 188 245 292 295 336 352 340 337 339 341 339 343 346 340 320 319 269 225 225 216 209 214 231
293 15 320 309 223 243 308 311 279 263 298 281 300 305 289 284 274 276 275 190 215 238 249 252 224 135 121 118 111 120 100 90 349 323 327 320 337 322 328 333 337 335 347 356 356 358 1 335 284 230 222 223 238 266
339 329 293 26 299 214 247 252 294 305 272 274 293 292 284 289 306 9 315 314 22 9 345 341 56 127 124 111 102 90 70 43 53 345 304 324 338 341 340 330 336 345 353 3 359 0 357 357 352 298 229 204 200 185
303 343 77 17 270 265 239 331 264 287 308 332 315 292 278 308 322 317 18 71 60 1 344 359 37 65 87 95 101 78 47 17 12 354 334 330 328 329 329 333 8 3 1 9 1 3 1 356 353 353 14 54 118 136
40 42 28 53 10 317 325 311 312 298 317 327 313 299 297 305 324 283 241 81 31 7 3 7 20 114 127 98 68 51 27 3 356 345 343 333 349 13 17 54 41 34 13 2 5 360 0 360 359 4 5 13 24 213
221 10 341 61 19 347 341 347 346 347 326 333 306 289 341 317 287 291 57 43 26 12 4 357 354 40 24 67 68 54 37 20 11 45 29 19 19 48 59 57 54 39 9 357 357 358 6 4 4 0 3 11 6 360
223 178 208 152 148 171 311 303 325 315 314 290 294 323 313 308 283 40 55 1 349 355 350 353 345 341 46 23 17 18 6 350 319 83 52 35 31 26 18 8 356 13 4 346 335 338 345 349 351 350 344 347 352 345
203 188 162 127 148 158 246 257 283 261 250 255 301 322 314 281 46 76 17 27 335 340 348 347 345 359 25 26 15 359 348 349 344 3 91 70 53 36 19 1 351 348 333 332 327 324 330 332 331 331 327 324 325 328
176 171 172 172 160 169 175 218 224 223 226 220 268 243 259 257 221 79 349 346 333 334 344 4 7 16 34 26 13 1 354 347 332 203 165 111 75 42 16 358 346 341 338 335 331 324 322 321 319 314 313 315 310 311
163 148 136 127 155 179 206 203 225 222 192 189 219 242 252 243 177 225 270 324 323 322 335 347 18 19 63 54 42 32 24 19 35 63 59 29 10 11 357 346 342 339 339 334 331 327 321 314 311 309 304 307 322 315
166 169 132 150 180 208 205 195 223 181 224 258 271 271 269 255 241 230 243 238 233 227 95 53 39 43 46 30 26 30 41 33 27 17 6 8 349 334 334 337 336 336 332 330 327 326 328 326 323 323 322 323 324 325
142 157 140 176 227 210 180 3 277 241 239 251 255 257 257 270 231 221 221 208 195 189 196 190 157 92 58 48 18 357 9 46 4 345 338 315 322 327 332 327 325 328 327 327 327 326 326 321 319 327 328 334 334 327
180 191 169 191 221 150 260 227 273 266 228 236 231 214 197 215 242 201 192 186 191 203 205 208 209 185 138 107 70 338 293 306 321 332 337 327 324 329 324 325 326 329 330 327 327 329 327 327 322 331 329 335 340 337
120 151 192 252 225 210 135 298 245 287 240 248 239 223 221 224 242 179 165 203 206 199 193 191 179 158 154 135 47 360 316 327 328 310 322 320 311 322 315 329 330 329 330 330 333 335 334 331 323 328 333 339 342 344